Terminal Aerodrome Forecast
Issued by NWS Columbia, SC

Home | Current Version | Previous Version | Text Only | Print | Product List | Glossary On
Versions: 1 2 3 4 5 6 7 8 9 10 11 12 13 14 15 16 17 18 19 20 21 22 23 24 25 26 27 28 29 30 31 32 33 34 35 36 37 38 39 40 41 42 43 44 45 46 47
000
FTUS42 KCAE 232300
TAFAGS
TAF
KAGS 232338Z 2400/2424 05010KT P6SM SCT025 BKN035
      TEMPO 2400/2402 BKN025 OVC035
     FM240700 03008KT P6SM SCT015 BKN025 BKN060
     FM241400 03010G17KT P6SM SCT025 BKN035 OVC080
     FM241800 03011G18KT P6SM BKN025 OVC040=

USA.gov is the U.S. government's official web portal to all federal, state and local government web resources and services.